Overview Statistics Trail Chart Weather Telemetry Raw packets
 

This is the latest recevied weather packets stored in our database for station/object W7BTL. If no packets are shown the sender has not sent any weather packets the latest 10 day(s).

<< 94 95 96 97 98 99 100 >>
Time Temp. Humidity Pressure Rain* Wind** Luminosity Snow
1787958314 35.56° C 37% 1009.3 hPa 0 mm - 558 W/m² -
1787958010 36.11° C 37% 1009.4 hPa 0 mm - 582 W/m² -
1787957708 36.67° C 35% 1009.3 hPa 0 mm - 588 W/m² -
1787957403 36.67° C 37% 1009.4 hPa 0 mm - 595 W/m² -
1787957103 36.11° C 36% 1009.5 hPa 0 mm - 582 W/m² -
1787956803 36.67° C 36% 1009.6 hPa 0 mm - 473 W/m² -
1787956498 36.67° C 37% 1009.6 hPa 0 mm - 713 W/m² -
1787956193 36.67° C 37% 1009.7 hPa 0 mm - 612 W/m² -
1787955892 37.22° C 35% 1009.6 hPa 0 mm - 573 W/m² -
1787955589 36.67° C 38% 1009.8 hPa 0 mm - 691 W/m² -
1787955284 37.22° C 37% 1009.9 hPa 0 mm - 626 W/m² -
1787954983 37.22° C 38% 1009.7 hPa 0 mm - 664 W/m² -
1787954679 37.22° C 38% 1010 hPa 0 mm - 770 W/m² -
1787954379 37.22° C 38% 1010 hPa 0 mm - 592 W/m² -
1787954074 36.67° C 40% 1009.7 hPa 0 mm - 809 W/m² -
1787953773 37.22° C 40% 1009.9 hPa 0 mm - 855 W/m² -
1787953468 37.22° C 38% 1010.1 hPa 0 mm - 777 W/m² -
1787953167 37.78° C 39% 1010 hPa 0 mm - 712 W/m² -
1787952865 37.78° C 37% 1010.2 hPa 0 mm - 656 W/m² -
1787952560 37.78° C 38% 1010.2 hPa 0 mm - 854 W/m² -
1787952259 37.78° C 39% 1010.4 hPa 0 mm - 819 W/m² -
1787951955 38.33° C 39% 1010.4 hPa 0 mm - 958 W/m² -
1787951651 37.78° C 41% 1010.5 hPa 0 mm - 908 W/m² -
1787951347 37.78° C 43% 1010.3 hPa 0 mm - 930 W/m² -
1787951042 37.22° C 43% 1010.6 hPa 0 mm - 930 W/m² -

* Rain latest hour (hover to see other rain measurements)
** Current wind speed in m/s (hover to see current wind gust speed)